Regional Weather Roundup
Issued by NWS

Home | Current Version | Previous Version | Graphics & Text | Print | Product List | Glossary Off
Versions: 1 2 3 4 5 6 7 8 9 10 11 12 13 14 15 16 17 18 19 20 21 22 23 24 25 26 27 28 29 30 31 32 33 34 35 36 37 38 39 40 41 42 43 44 45 46 47 48 49 50

000
ASUS43 KLSX 242259
RWRMO

WEATHER SUMMARY FOR MISSOURI
NATIONAL WEATHER SERVICE SPRINGFIELD MO
500 PM CST WED DEC 24 2014

NOTE: "FAIR" INDICATES FEW OR NO CLOUDS BELOW 12,000 FEET WITH NO
       SIGNIFICANT WEATHER AND/OR OBSTRUCTIONS TO VISIBILITY.
       CURRENT SKY AND/OR WEATHER CONDITIONS ARE NOT AVAILABLE FOR
       CHILLICOTHE AND FARMINGTON.

MOZ001>031-035>038-043-044-053-054-250000-
...NORTHERN AND WESTERN MISSOURI...

CITY           SKY/WX    TMP DP  RH WIND       PRES   REMARKS
KANSAS CTY INT CLOUDY    35  30  82 W9        29.81S WCI  28
KANSAS C DTWN  CLOUDY    37  30  75 W8        29.83S
LEE`S SUMMIT   CLOUDY    36  29  75 W8        29.83R WCI  30
ST JOSEPH      CLOUDY    34  29  82 W10       29.82F WCI  26
CHILLICOTHE      N/A     36  29  75 W9G18     29.80R WCI  29
KIRKSVILLE     LGT SNOW  34  33  96 W9        29.75R FOG     WCI  27

$$
MOZ066>068-077>081-088>096-101>105-250000-
...SOUTHWEST MISSOURI...

CITY           SKY/WX    TMP DP  RH WIND       PRES   REMARKS
SPRINGFIELD    CLOUDY    37  31  78 W8        29.84R
JOPLIN         CLOUDY    36  30  79 W9        29.90R WCI  29

$$
MOZ032>034-039>042-045>050-055>058-069>072-250000-
...CENTRAL MISSOURI...

CITY           SKY/WX    TMP DP  RH WIND       PRES   REMARKS
COLUMBIA       CLOUDY    37  33  85 W10       29.77R WCI  30
JEFFERSON CITY CLOUDY    39  33  79 W12       29.79R
ROLLA          CLOUDY    36  32  85 W12       29.75R WCI  28
SEDALIA        CLOUDY    37  33  85 W15       29.81R WCI  28
OSAGE BEACH    CLOUDY    37  30  75 W10G20    29.80R

$$
MOZ051-052-059>065-250000-
...EAST CENTRAL MISSOURI...

CITY           SKY/WX    TMP DP  RH WIND       PRES   REMARKS
ST LOUIS INTL  CLOUDY    39  33  79 W16G22    29.73R
SPIRIT OF STL  CLOUDY    38  33  82 W8        29.74R
ST CHARLES     CLOUDY    38  33  82 W12       29.72R

$$
MOZ072>076-082>087-097>100-106>115-250000-
...SOUTH CENTRAL AND SOUTHEAST MISSOURI...

CITY           SKY/WX    TMP DP  RH WIND       PRES   REMARKS
CAPE GIRARDEAU CLOUDY    41  38  89 SW8       29.78R
FARMINGTON     CLOUDY    37  32  81 W5G16     29.77R
POPLAR BLUFF   CLOUDY    42  33  70 W7        29.79R
WEST PLAINS    CLOUDY    38  30  73 W9G18     29.81R

$$



USA.gov is the U.S. government's official web portal to all federal, state and local government web resources and services.